Location: �perlecques
(50.8057°N, 2.1521°E)
Time: 02:18:13
(UTC+00:00)

ITAMSAT 1 - Pass Details

Date: 11 April 2023
Orbit: 782 x 797 km, 98.8° (Epoch: 07 June)

Event Time Altitude Azimuth Distance (km) Brightness Sun altitude
Rises 20:17:17 0° 193° (SSW) 3,285 10.7 -14.8°
Reaches altitude 10° 20:19:52 10° 204° (SSW) 2,362 10.0 -15.1°
Maximum altitude 20:24:26 30° 265° (W) 1,395 9.5 -15.7°
Drops below altitude 10° 20:29:02 10° 327° (NNW) 2,380 11.3 -16.3°
Sets 20:31:40 0° 338° (NNW) 3,315 12.0 -16.6°
